Time,TemperatureF,DewpointF,PressureIn,WindDirection,WindDirectionDegrees,WindSpeedMPH,WindSpeedGustMPH,Humidity,HourlyPrecipIn,Conditions,Clouds,dailyrainin,SoftwareType,DateUTC
2013-02-19 00:02:00,16.0,11.0,29.62,NW,322,11.0,19.0,82,0.00,,,0.02,,2013-02-19 06:02:00,
2013-02-19 00:11:00,16.0,11.0,29.62,NW,322,11.0,19.0,82,0.00,,,0.02,,2013-02-19 06:11:00,
2013-02-19 00:21:00,15.0,11.0,29.62,WNW,297,12.0,20.0,82,0.00,,,0.02,,2013-02-19 06:21:00,
2013-02-19 00:32:00,14.0,9.0,29.63,NW,304,11.0,20.0,80,0.00,,,0.02,,2013-02-19 06:32:00,
2013-02-19 00:42:00,14.0,9.0,29.63,NW,304,11.0,20.0,80,0.00,,,0.02,,2013-02-19 06:42:00,
2013-02-19 00:52:00,14.0,9.0,29.63,NW,311,13.0,26.0,79,0.00,,,0.02,,2013-02-19 06:52:00,
2013-02-19 01:01:00,14.0,8.0,29.64,NW,325,15.0,28.0,78,0.00,,,0.02,,2013-02-19 07:01:00,
2013-02-19 01:11:00,14.0,8.0,29.64,NW,325,15.0,28.0,78,0.00,,,0.02,,2013-02-19 07:11:00,
2013-02-19 01:22:00,13.0,7.0,29.65,NNW,338,15.0,23.0,78,0.00,,,0.02,,2013-02-19 07:22:00,
2013-02-19 01:32:00,13.0,7.0,29.65,NW,314,9.0,25.0,78,0.00,,,0.02,,2013-02-19 07:32:00,
2013-02-19 01:42:00,13.0,7.0,29.65,NW,314,9.0,25.0,78,0.00,,,0.02,,2013-02-19 07:42:00,
2013-02-19 01:52:00,13.0,7.0,29.66,NW,313,14.0,23.0,78,0.00,,,0.02,,2013-02-19 07:52:00,
2013-02-19 02:01:00,12.0,6.0,29.66,NW,318,12.0,19.0,78,0.00,,,0.02,,2013-02-19 08:01:00,
2013-02-19 02:11:00,12.0,6.0,29.66,NW,318,12.0,19.0,78,0.00,,,0.02,,2013-02-19 08:11:00,
2013-02-19 02:21:00,12.0,6.0,29.67,NW,315,9.0,21.0,78,0.00,,,0.02,,2013-02-19 08:21:00,
2013-02-19 02:31:00,12.0,6.0,29.67,NW,304,13.0,20.0,77,0.00,,,0.02,,2013-02-19 08:31:00,
2013-02-19 02:42:00,12.0,6.0,29.67,NW,304,13.0,20.0,77,0.00,,,0.02,,2013-02-19 08:42:00,
2013-02-19 02:52:00,11.0,5.0,29.68,NW,313,15.0,23.0,76,0.00,,,0.02,,2013-02-19 08:52:00,
2013-02-19 03:01:00,11.0,5.0,29.68,NW,313,15.0,23.0,76,0.00,,,0.02,,2013-02-19 09:01:00,
2013-02-19 03:11:00,11.0,5.0,29.68,NW,313,15.0,23.0,76,0.00,,,0.02,,2013-02-19 09:11:00,
2013-02-19 03:21:00,10.0,3.0,29.70,WNW,288,14.0,23.0,74,0.00,,,0.02,,2013-02-19 09:21:00,
2013-02-19 03:32:00,10.0,3.0,29.71,NW,324,13.0,21.0,74,0.00,,,0.02,,2013-02-19 09:32:00,
2013-02-19 03:42:00,10.0,3.0,29.71,NW,324,13.0,21.0,74,0.00,,,0.02,,2013-02-19 09:42:00,
2013-02-19 03:53:00,9.0,2.0,29.71,NW,310,13.0,25.0,73,0.00,,,0.02,,2013-02-19 09:53:00,
2013-02-19 04:01:00,8.0,1.0,29.72,NNW,332,15.0,21.0,73,0.00,,,0.02,,2013-02-19 10:01:00,
2013-02-19 04:11:00,8.0,1.0,29.72,NNW,332,15.0,21.0,73,0.00,,,0.02,,2013-02-19 10:11:00,
2013-02-19 04:21:00,7.0,0.0,29.73,NW,320,17.0,23.0,74,0.00,,,0.02,,2013-02-19 10:21:00,
2013-02-19 04:31:00,7.0,0.0,29.74,WNW,297,13.0,20.0,74,0.00,,,0.02,,2013-02-19 10:31:00,
2013-02-19 04:41:00,7.0,0.0,29.74,WNW,297,13.0,20.0,74,0.00,,,0.02,,2013-02-19 10:41:00,
2013-02-19 04:52:00,6.0,0.0,29.75,WNW,294,12.0,18.0,74,0.00,,,0.02,,2013-02-19 10:52:00,
2013-02-19 05:01:00,6.0,0.0,29.75,NW,321,12.0,23.0,75,0.00,,,0.02,,2013-02-19 11:01:00,
2013-02-19 05:11:00,6.0,0.0,29.75,NW,321,12.0,23.0,75,0.00,,,0.02,,2013-02-19 11:11:00,
2013-02-19 05:21:00,6.0,0.0,29.76,NW,313,11.0,20.0,75,0.00,,,0.02,,2013-02-19 11:21:00,
2013-02-19 05:32:00,6.0,0.0,29.77,WNW,302,12.0,21.0,75,0.00,,,0.02,,2013-02-19 11:32:00,
2013-02-19 05:42:00,6.0,0.0,29.77,WNW,302,12.0,21.0,75,0.00,,,0.02,,2013-02-19 11:42:00,
2013-02-19 05:52:00,6.0,0.0,29.78,WNW,286,12.0,18.0,74,0.00,,,0.02,,2013-02-19 11:52:00,
2013-02-19 06:01:00,5.0,-2.0,29.78,NW,321,16.0,24.0,73,0.00,,,0.02,,2013-02-19 12:01:00,
2013-02-19 06:12:00,5.0,-2.0,29.78,NW,321,16.0,24.0,73,0.00,,,0.02,,2013-02-19 12:12:00,
2013-02-19 06:22:00,5.0,-2.0,29.79,WNW,296,12.0,23.0,73,0.00,,,0.02,,2013-02-19 12:22:00,
2013-02-19 06:32:00,5.0,-2.0,29.80,NW,313,13.0,23.0,73,0.00,,,0.02,,2013-02-19 12:32:00,
2013-02-19 06:42:00,5.0,-2.0,29.80,NW,313,13.0,23.0,73,0.00,,,0.02,,2013-02-19 12:42:00,
2013-02-19 06:52:00,4.0,-3.0,29.81,NW,317,13.0,24.0,73,0.00,,,0.02,,2013-02-19 12:52:00,
2013-02-19 07:02:00,4.0,-3.0,29.82,NW,317,17.0,26.0,73,0.00,,,0.02,,2013-02-19 13:02:00,
2013-02-19 07:11:00,4.0,-3.0,29.82,NW,317,17.0,26.0,73,0.00,,,0.02,,2013-02-19 13:11:00,
2013-02-19 07:22:00,4.0,-3.0,29.83,NW,309,14.0,25.0,72,0.00,,,0.02,,2013-02-19 13:22:00,
2013-02-19 07:32:00,3.0,-4.0,29.84,NW,313,12.0,20.0,72,0.00,,,0.02,,2013-02-19 13:32:00,
2013-02-19 07:41:00,3.0,-4.0,29.84,NW,313,12.0,20.0,72,0.00,,,0.02,,2013-02-19 13:41:00,
2013-02-19 07:52:00,3.0,-4.0,29.85,NW,316,14.0,21.0,72,0.00,,,0.02,,2013-02-19 13:52:00,
2013-02-19 08:01:00,3.0,-4.0,29.85,NW,316,14.0,21.0,72,0.00,,,0.02,,2013-02-19 14:01:00,
2013-02-19 08:11:00,3.0,-4.0,29.85,NW,316,14.0,21.0,72,0.00,,,0.02,,2013-02-19 14:11:00,
2013-02-19 08:21:00,3.0,-4.0,29.87,NW,305,12.0,23.0,72,0.00,,,0.02,,2013-02-19 14:21:00,
2013-02-19 08:32:00,3.0,-4.0,29.87,NW,305,12.0,23.0,72,0.00,,,0.02,,2013-02-19 14:32:00,
2013-02-19 08:42:00,3.0,-4.0,29.87,NW,305,12.0,23.0,72,0.00,,,0.02,,2013-02-19 14:42:00,
2013-02-19 08:52:00,3.0,-4.0,29.88,NW,320,19.0,27.0,71,0.00,,,0.02,,2013-02-19 14:52:00,
2013-02-19 09:01:00,3.0,-4.0,29.89,NNW,332,15.0,26.0,71,0.00,,,0.02,,2013-02-19 15:01:00,
2013-02-19 09:11:00,3.0,-4.0,29.89,NNW,332,15.0,26.0,71,0.00,,,0.02,,2013-02-19 15:11:00,
2013-02-19 09:21:00,2.0,-6.0,29.90,NW,313,13.0,26.0,69,0.00,,,0.02,,2013-02-19 15:21:00,
2013-02-19 09:31:00,3.0,-5.0,29.90,NNW,336,17.0,23.0,67,0.00,,,0.02,,2013-02-19 15:31:00,
2013-02-19 09:42:00,3.0,-5.0,29.90,NNW,336,17.0,23.0,67,0.00,,,0.02,,2013-02-19 15:42:00,
2013-02-19 09:52:00,3.0,-5.0,29.92,NW,318,11.0,23.0,67,0.00,,,0.02,,2013-02-19 15:52:00,
2013-02-19 10:01:00,3.0,-5.0,29.92,NW,321,14.0,20.0,67,0.00,,,0.02,,2013-02-19 16:01:00,
2013-02-19 10:11:00,3.0,-5.0,29.92,NW,321,14.0,20.0,67,0.00,,,0.02,,2013-02-19 16:11:00,
2013-02-19 10:21:00,2.0,-7.0,29.93,NW,317,17.0,24.0,66,0.00,,,0.02,,2013-02-19 16:21:00,
2013-02-19 10:32:00,3.0,-6.0,29.93,NW,313,15.0,24.0,66,0.00,,,0.02,,2013-02-19 16:32:00,
2013-02-19 10:41:00,3.0,-6.0,29.93,NW,313,15.0,24.0,66,0.00,,,0.02,,2013-02-19 16:41:00,
2013-02-19 10:52:00,3.0,-6.0,29.94,NW,325,16.0,22.0,65,0.00,,,0.02,,2013-02-19 16:52:00,
2013-02-19 11:01:00,4.0,-5.0,29.95,NNW,338,17.0,23.0,64,0.00,,,0.02,,2013-02-19 17:01:00,
2013-02-19 11:11:00,4.0,-5.0,29.95,NNW,338,17.0,23.0,64,0.00,,,0.02,,2013-02-19 17:11:00,
2013-02-19 11:21:00,4.0,-5.0,29.96,NNW,332,12.0,21.0,64,0.00,,,0.02,,2013-02-19 17:21:00,
2013-02-19 11:32:00,4.0,-6.0,29.96,NNW,334,15.0,23.0,63,0.00,,,0.02,,2013-02-19 17:32:00,
2013-02-19 11:41:00,4.0,-6.0,29.96,NNW,334,15.0,23.0,63,0.00,,,0.02,,2013-02-19 17:41:00,
2013-02-19 11:52:00,4.0,-6.0,29.97,NW,319,14.0,24.0,63,0.00,,,0.02,,2013-02-19 17:52:00,
2013-02-19 12:01:00,4.0,-6.0,29.98,NW,324,12.0,22.0,62,0.00,,,0.02,,2013-02-19 18:01:00,
2013-02-19 12:11:00,4.0,-6.0,29.98,NW,324,12.0,22.0,62,0.00,,,0.02,,2013-02-19 18:11:00,
2013-02-19 12:21:00,5.0,-5.0,29.98,NW,323,19.0,23.0,62,0.00,,,0.01,,2013-02-19 18:21:00,
2013-02-19 12:31:00,5.0,-5.0,29.98,NW,311,16.0,22.0,61,0.00,,,0.01,,2013-02-19 18:31:00,
2013-02-19 12:41:00,5.0,-5.0,29.98,NW,311,16.0,22.0,61,0.00,,,0.01,,2013-02-19 18:41:00,
2013-02-19 12:52:00,5.0,-5.0,29.98,NW,311,16.0,22.0,61,0.00,,,0.01,,2013-02-19 18:52:00,
2013-02-19 13:01:00,6.0,-5.0,30.00,NW,305,13.0,23.0,61,0.00,,,0.01,,2013-02-19 19:01:00,
2013-02-19 13:11:00,6.0,-5.0,30.00,NW,305,13.0,23.0,61,0.00,,,0.01,,2013-02-19 19:11:00,
2013-02-19 13:21:00,7.0,-4.0,30.00,WNW,295,14.0,22.0,60,0.00,,,0.01,,2013-02-19 19:21:00,
2013-02-19 13:31:00,7.0,-4.0,30.00,NNW,328,18.0,26.0,59,0.00,,,0.01,,2013-02-19 19:31:00,
2013-02-19 13:41:00,7.0,-4.0,30.00,NNW,328,18.0,26.0,59,0.00,,,0.01,,2013-02-19 19:41:00,
2013-02-19 13:52:00,8.0,-4.0,30.01,NNW,333,15.0,23.0,58,0.00,,,0.01,,2013-02-19 19:52:00,
2013-02-19 14:01:00,8.0,-4.0,30.01,NNW,333,15.0,23.0,58,0.00,,,0.01,,2013-02-19 20:01:00,
2013-02-19 14:12:00,8.0,-4.0,30.01,NNW,333,15.0,23.0,58,0.00,,,0.01,,2013-02-19 20:12:00,
2013-02-19 14:21:00,9.0,-3.0,30.02,WNW,296,14.0,22.0,58,0.00,,,0.01,,2013-02-19 20:21:00,
2013-02-19 14:32:00,9.0,-3.0,30.02,WNW,284,17.0,21.0,58,0.00,,,0.01,,2013-02-19 20:32:00,
2013-02-19 14:42:00,9.0,-3.0,30.02,WNW,284,17.0,21.0,58,0.00,,,0.01,,2013-02-19 20:42:00,
2013-02-19 14:52:00,9.0,-3.0,30.03,NW,306,13.0,22.0,58,0.00,,,0.01,,2013-02-19 20:52:00,
2013-02-19 15:02:00,10.0,-2.0,30.03,WNW,296,14.0,23.0,57,0.00,,,0.01,,2013-02-19 21:02:00,
2013-02-19 15:11:00,10.0,-2.0,30.03,WNW,296,14.0,23.0,57,0.00,,,0.01,,2013-02-19 21:11:00,
2013-02-19 15:21:00,10.0,-3.0,30.04,NNW,338,18.0,25.0,56,0.00,,,0.01,,2013-02-19 21:21:00,
2013-02-19 15:31:00,10.0,-3.0,30.05,NNW,332,12.0,22.0,56,0.00,,,0.01,,2013-02-19 21:31:00,
2013-02-19 15:42:00,10.0,-3.0,30.05,NNW,332,12.0,22.0,56,0.00,,,0.01,,2013-02-19 21:42:00,
2013-02-19 15:52:00,10.0,-3.0,30.06,NW,305,15.0,24.0,55,0.00,,,0.01,,2013-02-19 21:52:00,
2013-02-19 16:02:00,11.0,-2.0,30.07,NW,320,12.0,24.0,55,0.00,,,0.01,,2013-02-19 22:02:00,
2013-02-19 16:11:00,11.0,-2.0,30.07,NW,320,12.0,24.0,55,0.00,,,0.01,,2013-02-19 22:11:00,
2013-02-19 16:21:00,10.0,-3.0,30.08,NW,315,17.0,24.0,55,0.00,,,0.00,,2013-02-19 22:21:00,
2013-02-19 16:32:00,10.0,-3.0,30.09,NNW,346,14.0,19.0,55,0.00,,,0.00,,2013-02-19 22:32:00,
2013-02-19 16:41:00,10.0,-3.0,30.09,NNW,346,14.0,19.0,55,0.00,,,0.00,,2013-02-19 22:41:00,
2013-02-19 16:52:00,10.0,-3.0,30.10,NW,317,12.0,23.0,55,0.00,,,0.00,,2013-02-19 22:52:00,
2013-02-19 17:01:00,10.0,-3.0,30.10,NW,317,12.0,23.0,55,0.00,,,0.00,,2013-02-19 23:01:00,
2013-02-19 17:11:00,10.0,-3.0,30.10,NW,317,12.0,23.0,55,0.00,,,0.00,,2013-02-19 23:11:00,
2013-02-19 17:21:00,10.0,-3.0,30.10,NW,324,16.0,24.0,54,0.00,,,0.00,,2013-02-19 23:21:00,
2013-02-19 17:32:00,9.0,-4.0,30.12,NW,319,10.0,19.0,55,0.00,,,0.00,,2013-02-19 23:32:00,
2013-02-19 17:42:00,9.0,-4.0,30.12,NW,319,10.0,19.0,55,0.00,,,0.00,,2013-02-19 23:42:00,
2013-02-19 17:52:00,9.0,-3.0,30.12,WNW,300,16.0,24.0,56,0.00,,,0.00,,2013-02-19 23:52:00,
2013-02-19 18:01:00,8.0,-4.0,30.13,NNW,337,15.0,22.0,57,0.00,,,0.00,,2013-02-20 00:01:00,
2013-02-19 18:11:00,8.0,-4.0,30.13,NNW,337,15.0,22.0,57,0.00,,,0.00,,2013-02-20 00:11:00,
2013-02-19 18:21:00,8.0,-4.0,30.14,NW,325,12.0,20.0,58,0.00,,,0.00,,2013-02-20 00:21:00,
2013-02-19 18:32:00,7.0,-5.0,30.15,NNW,344,13.0,22.0,58,0.00,,,0.00,,2013-02-20 00:32:00,
2013-02-19 18:42:00,7.0,-5.0,30.15,NNW,344,13.0,22.0,58,0.00,,,0.00,,2013-02-20 00:42:00,
2013-02-19 18:52:00,7.0,-5.0,30.16,NW,309,14.0,20.0,58,0.00,,,0.00,,2013-02-20 00:52:00,
2013-02-19 19:02:00,7.0,-5.0,30.17,North,351,11.0,19.0,58,0.00,,,0.00,,2013-02-20 01:02:00,
2013-02-19 19:11:00,7.0,-5.0,30.17,North,351,11.0,19.0,58,0.00,,,0.00,,2013-02-20 01:11:00,
2013-02-19 19:21:00,6.0,-6.0,30.18,NNW,339,11.0,19.0,58,0.00,,,0.00,,2013-02-20 01:21:00,
2013-02-19 19:32:00,6.0,-5.0,30.19,NNW,327,9.0,14.0,59,0.00,,,0.00,,2013-02-20 01:32:00,
2013-02-19 19:42:00,6.0,-5.0,30.19,NNW,327,9.0,14.0,59,0.00,,,0.00,,2013-02-20 01:42:00,
2013-02-19 19:51:00,6.0,-5.0,30.19,NNW,336,8.0,15.0,59,0.00,,,0.00,,2013-02-20 01:51:00,
2013-02-19 20:01:00,6.0,-5.0,30.19,NNW,336,8.0,15.0,59,0.00,,,0.00,,2013-02-20 02:01:00,
2013-02-19 20:11:00,6.0,-5.0,30.19,NNW,336,8.0,15.0,59,0.00,,,0.00,,2013-02-20 02:11:00,
2013-02-19 20:21:00,5.0,-6.0,30.21,NNW,327,7.0,13.0,60,0.00,,,0.00,,2013-02-20 02:21:00,
2013-02-19 20:32:00,5.0,-6.0,30.21,NNW,331,7.0,13.0,60,0.00,,,0.00,,2013-02-20 02:32:00,
2013-02-19 20:42:00,5.0,-6.0,30.21,NNW,331,7.0,13.0,60,0.00,,,0.00,,2013-02-20 02:42:00,
2013-02-19 20:52:00,4.0,-6.0,30.22,North,5,5.0,12.0,61,0.00,,,0.00,,2013-02-20 02:52:00,
2013-02-19 21:01:00,4.0,-6.0,30.23,NW,323,5.0,11.0,61,0.00,,,0.00,,2013-02-20 03:01:00,
2013-02-19 21:12:00,4.0,-6.0,30.23,NW,323,5.0,11.0,61,0.00,,,0.00,,2013-02-20 03:12:00,
2013-02-19 21:22:00,4.0,-6.0,30.24,WNW,300,4.0,8.0,61,0.00,,,0.00,,2013-02-20 03:22:00,
2013-02-19 21:32:00,3.0,-7.0,30.24,NW,317,6.0,9.0,62,0.00,,,0.00,,2013-02-20 03:32:00,
2013-02-19 21:42:00,3.0,-7.0,30.24,NW,317,6.0,9.0,62,0.00,,,0.00,,2013-02-20 03:42:00,
2013-02-19 21:51:00,3.0,-7.0,30.25,NW,313,7.0,11.0,63,0.00,,,0.00,,2013-02-20 03:51:00,
2013-02-19 22:01:00,4.0,-6.0,30.26,NNW,338,7.0,13.0,62,0.00,,,0.00,,2013-02-20 04:01:00,
2013-02-19 22:11:00,4.0,-6.0,30.26,NNW,338,7.0,13.0,62,0.00,,,0.00,,2013-02-20 04:11:00,
2013-02-19 22:21:00,3.0,-7.0,30.26,North,1,3.0,11.0,63,0.00,,,0.00,,2013-02-20 04:21:00,
2013-02-19 22:31:00,3.0,-7.0,30.26,North,1,3.0,11.0,63,0.00,,,0.00,,2013-02-20 04:31:00,
2013-02-19 22:42:00,3.0,-7.0,30.26,North,1,3.0,11.0,63,0.00,,,0.00,,2013-02-20 04:42:00,
2013-02-19 22:52:00,3.0,-6.0,30.27,NNW,341,6.0,10.0,64,0.00,,,0.00,,2013-02-20 04:52:00,
2013-02-19 23:02:00,3.0,-6.0,30.27,NNW,341,6.0,10.0,64,0.00,,,0.00,,2013-02-20 05:02:00,
2013-02-19 23:12:00,3.0,-6.0,30.27,NNW,341,6.0,10.0,64,0.00,,,0.00,,2013-02-20 05:12:00,
2013-02-19 23:22:00,3.0,-6.0,30.28,North,1,10.0,17.0,65,0.00,,,0.00,,2013-02-20 05:22:00,
2013-02-19 23:32:00,3.0,-6.0,30.27,North,351,9.0,15.0,66,0.00,,,0.00,,2013-02-20 05:32:00,
2013-02-19 23:43:00,3.0,-6.0,30.27,North,351,9.0,15.0,66,0.00,,,0.00,,2013-02-20 05:43:00,
2013-02-19 23:52:00,2.0,-6.0,30.28,North,1,7.0,11.0,67,0.00,,,0.00,,2013-02-20 05:52:00,